Wind_Speed
28 27 27 27 28 28 28 28 27 27 27 27 25 24 22 22 22 21 22 23 23 22 22 22 22 23 23 22 22 21 20 18 17 17 16 15 14 14 13 12 12 11 10
29 29 29 29 29 29 29 27 27 27 27 26 25 24 24 24 24 23 23 23 25 25 24 25 24 24 25 25 24 23 22 21 20 19 18 17 16 16 15 14 13 12 12
28 29 28 29 30 30 29 28 27 28 26 25 26 25 25 25 25 25 25 25 25 26 26 26 26 25 26 26 26 26 25 23 22 21 20 19 19 18 17 16 15 14 13
29 29 29 29 31 30 29 28 28 27 26 26 26 26 27 26 25 26 27 27 28 27 28 28 28 28 27 28 28 28 27 26 25 23 22 21 20 19 19 18 17 16 15
31 31 31 31 30 31 29 29 28 27 27 27 27 27 27 27 27 27 27 28 29 29 29 29 29 29 29 29 28 29 29 28 27 25 25 24 23 22 21 20 19 18 18
33 33 32 32 32 31 31 31 29 29 29 29 29 28 28 28 28 28 27 28 29 30 30 30 30 30 30 30 30 30 30 30 28 27 26 25 25 24 23 22 21 20 19
34 34 34 34 34 33 33 33 32 31 31 31 31 31 30 30 30 30 29 29 29 31 31 32 32 32 31 31 31 31 31 31 30 28 28 27 26 25 25 24 23 22 21
35 36 36 36 36 36 35 35 34 34 34 34 33 33 32 31 31 31 31 30 30 32 32 32 32 33 32 32 32 32 31 31 30 29 28 27 27 27 26 26 25 24 23
37 37 36 37 37 37 37 37 37 37 37 37 36 35 33 32 32 32 31 31 31 31 32 33 33 33 32 33 33 33 33 31 31 29 29 28 27 27 27 27 26 25 24
36 36 36 37 37 37 37 38 38 38 38 38 38 37 36 35 33 33 33 32 32 32 33 33 33 33 33 33 34 34 34 33 31 30 30 28 28 28 27 27 26 25 25
35 34 35 35 36 37 37 38 38 38 38 38 39 39 39 38 36 36 35 34 34 33 34 34 35 35 34 34 35 36 35 34 32 31 29 29 28 27 27 27 26 25 25
35 35 35 35 35 36 37 37 38 38 38 38 39 39 39 39 39 38 37 36 35 35 36 35 35 36 35 35 35 36 36 35 33 31 30 29 28 27 26 26 25 24 24
36 37 36 36 36 36 37 37 38 39 39 39 40 40 40 40 39 39 39 38 38 37 38 37 35 36 37 37 38 37 37 36 33 32 30 29 28 27 26 25 25 24 23
36 37 37 38 38 38 38 39 39 39 40 41 41 42 42 42 41 41 40 40 39 39 39 38 37 37 37 37 37 38 37 36 34 33 31 30 29 28 26 26 25 24 23
37 37 38 38 39 39 40 40 40 41 41 41 42 43 44 44 43 43 42 41 41 40 40 40 40 40 39 39 39 40 39 37 35 34 33 31 30 29 28 26 25 24 23
38 38 38 38 39 40 41 41 41 42 42 42 42 43 44 45 45 44 44 43 42 43 42 41 41 41 41 41 42 41 40 39 38 36 35 34 32 31 29 27 26 25 24
38 39 39 40 40 41 42 42 42 43 43 43 44 44 45 46 46 45 45 45 44 43 43 43 44 43 43 43 43 43 42 41 40 38 37 36 34 32 31 29 28 26 24
38 38 39 40 41 42 43 44 44 44 44 44 45 45 46 47 46 46 46 46 45 45 45 45 45 45 46 45 45 45 43 43 42 40 40 38 36 35 33 31 30 28 26
37 38 39 40 40 41 41 42 43 44 44 44 45 45 46 47 47 47 47 47 47 47 47 46 45 46 46 47 47 47 45 45 44 43 42 41 39 37 35 34 32 30 28
37 38 38 38 38 38 39 40 41 42 43 44 44 45 46 47 48 48 48 47 48 49 49 48 47 47 48 47 48 47 46 46 46 45 44 43 41 40 37 36 35 33 31
37 37 37 37 37 37 38 39 40 41 42 43 43 44 45 47 48 49 49 49 49 49 49 50 49 49 50 49 49 48 48 48 47 47 46 45 43 42 40 39 37 34 33
36 36 36 35 35 36 36 37 38 39 40 41 42 43 44 45 47 48 49 50 50 50 50 50 52 51 51 50 50 49 49 49 48 48 47 46 45 44 43 41 38 36 34
36 35 34 34 33 34 34 34 35 36 37 39 40 42 44 45 46 48 48 49 51 51 51 51 52 53 54 53 52 50 51 51 50 50 49 48 47 46 45 43 41 39 36
35 34 33 33 33 32 33 33 33 33 34 36 37 39 41 44 46 47 48 49 51 52 52 52 52 53 55 54 55 52 50 51 52 52 51 50 49 48 47 45 43 41 38
35 33 32 32 31 31 31 31 31 30 31 32 34 36 38 41 44 46 47 48 50 52 53 53 54 54 56 55 55 56 53 52 52 52 52 51 50 49 48 47 45 42 40
34 33 32 31 31 30 30 29 29 28 28 29 30 32 34 37 41 44 45 46 48 50 52 53 53 54 55 56 56 56 56 54 53 53 52 52 51 50 49 48 46 43 41
Wind_Direction
271 272 273 276 279 283 282 277 274 270 268 267 268 268 262 258 254 251 246 240 237 235 232 230 229 228 224 221 219 219 219 219 218 218 218 217 215 214 213 212 213 212 212
270 274 275 279 283 283 281 278 274 272 269 269 267 266 263 261 255 253 247 242 238 237 235 232 232 231 227 225 223 221 221 221 221 221 220 219 218 216 216 217 217 216 215
275 276 277 280 281 281 280 276 272 273 269 269 268 265 264 261 258 254 250 246 241 238 237 236 234 232 230 228 226 224 222 222 222 223 222 221 219 219 219 220 221 221 221
280 280 281 281 280 278 278 276 274 271 269 268 266 265 263 261 261 255 251 247 244 241 239 238 236 234 232 229 227 225 222 223 224 224 224 222 222 223 224 224 225 226 227
281 281 280 281 279 276 277 276 273 271 269 267 266 264 262 260 259 256 253 249 245 242 240 238 235 234 233 231 228 227 225 224 225 226 226 225 226 228 228 228 228 229 229
281 279 278 277 276 276 276 275 274 270 268 266 265 264 261 259 259 256 255 251 247 242 240 238 235 233 234 232 230 230 228 226 225 226 227 228 228 229 229 229 230 230 231
282 280 279 278 276 276 275 274 272 269 268 266 266 264 261 258 258 255 253 251 248 242 240 237 235 233 233 234 230 231 228 227 225 227 228 229 229 230 230 230 231 232 233
282 280 280 278 276 275 275 273 271 269 268 266 265 263 260 257 256 253 251 251 247 242 239 238 235 232 233 233 231 228 227 226 226 226 227 228 229 231 231 231 232 234 235
283 281 280 277 276 275 273 273 270 269 267 266 264 263 260 258 255 250 249 248 247 243 240 238 234 232 233 231 228 225 225 225 225 226 227 229 230 232 232 232 233 234 236
285 282 279 278 276 274 273 272 270 268 266 265 263 261 259 257 254 249 248 246 244 243 239 235 233 232 232 230 226 224 224 223 225 226 227 229 230 233 233 232 231 233 234
288 284 281 278 276 274 272 271 269 268 266 264 262 260 258 255 252 249 247 246 245 242 239 236 233 231 230 229 226 224 222 222 224 224 226 228 229 231 231 230 229 231 234
288 285 282 279 277 275 273 271 269 268 266 263 260 258 256 254 251 248 245 244 243 241 239 235 232 230 228 227 224 222 220 221 222 222 224 226 226 226 227 226 227 229 232
288 286 284 281 278 275 272 270 268 267 265 263 260 258 255 253 250 247 245 243 242 240 238 234 231 228 227 225 223 221 220 219 221 221 222 224 223 222 223 223 225 227 229
288 286 285 283 280 277 273 271 269 267 265 263 260 257 254 252 249 247 244 242 241 239 236 232 229 228 226 222 220 219 219 217 219 219 220 220 220 220 221 222 224 225 228
289 286 284 282 280 278 275 272 269 267 265 263 260 257 253 250 249 247 244 242 239 236 233 230 229 228 224 220 220 219 218 217 217 217 218 218 219 219 220 220 221 223 224
290 287 285 282 280 278 276 273 270 267 265 262 260 257 253 250 248 246 244 242 239 235 231 229 227 226 224 221 221 220 219 218 218 217 217 217 218 219 219 219 220 221 223
291 288 285 283 281 278 276 273 270 268 265 262 259 256 253 249 247 245 243 241 239 235 231 228 227 225 225 221 220 220 218 217 217 217 218 218 218 218 218 219 219 220 222
293 291 288 285 283 280 277 274 271 268 265 263 259 255 252 249 246 244 242 240 238 236 232 228 227 226 224 221 220 219 219 218 218 218 218 218 218 218 218 219 219 220 222
297 294 292 289 286 283 280 276 272 268 266 263 259 254 251 248 245 243 241 239 237 235 232 229 226 225 224 222 221 219 219 218 219 219 219 219 219 219 219 219 220 221 223
302 299 296 293 290 286 283 278 274 269 266 262 258 253 250 246 244 242 240 238 236 234 231 228 226 224 222 222 221 219 218 218 218 218 218 219 219 220 220 220 221 221 223
306 303 299 296 293 290 286 281 275 271 266 262 258 253 249 246 242 241 239 237 235 232 230 228 225 223 221 221 220 220 220 219 218 218 218 219 219 220 221 221 222 223 224
310 307 303 300 297 294 289 284 279 273 266 261 257 252 249 246 241 239 238 236 234 232 229 227 224 222 221 221 221 220 220 220 219 217 217 219 220 221 221 222 223 223 225
315 311 308 304 301 297 293 289 283 275 268 262 257 253 249 245 241 238 236 234 232 231 229 227 225 223 221 220 220 220 220 221 220 217 218 219 220 219 220 221 222 224 225
322 318 313 309 305 301 297 292 286 279 270 263 257 253 248 244 239 237 234 233 231 230 228 227 225 222 221 220 218 217 219 220 220 219 219 219 219 219 220 220 222 224 225
326 323 319 316 311 307 302 297 290 282 274 266 259 253 247 242 238 235 233 231 229 228 227 226 224 222 221 220 219 218 218 218 219 218 218 219 219 219 220 220 222 224 225
330 327 324 321 317 313 308 304 297 288 278 269 261 252 245 241 237 233 230 228 228 227 226 226 225 222 221 222 220 218 218 219 220 219 219 219 220 220 220 220 222 223 225
Height
5859 5858 5858 5858 5857 5856 5856 5856 5856 5856 5856 5856 5856 5857 5858 5860 5862 5864 5866 5868 5870 5872 5874 5876 5879 5882 5884 5887 5890 5892 5895 5897 5900 5902 5904 5906 5908 5909 5911 5913 5915 5916 5918
5853 5853 5852 5852 5851 5850 5849 5849 5850 5850 5850 5850 5851 5851 5853 5854 5856 5858 5860 5862 5865 5867 5869 5871 5874 5877 5880 5882 5885 5888 5891 5894 5896 5898 5901 5903 5905 5907 5909 5911 5913 5915 5917
5845 5845 5845 5845 5844 5843 5842 5843 5843 5844 5844 5845 5845 5846 5847 5848 5850 5852 5854 5856 5859 5861 5864 5866 5868 5871 5874 5877 5880 5883 5886 5889 5892 5895 5897 5900 5902 5904 5907 5909 5911 5913 5915
5838 5837 5838 5837 5837 5836 5835 5835 5836 5837 5837 5838 5839 5840 5840 5842 5843 5845 5847 5850 5852 5855 5857 5860 5862 5865 5868 5871 5874 5878 5881 5884 5888 5890 5893 5896 5899 5901 5904 5906 5908 5910 5912
5831 5831 5830 5830 5829 5829 5829 5829 5830 5830 5831 5831 5832 5833 5833 5835 5837 5839 5841 5842 5845 5847 5850 5853 5856 5859 5862 5865 5868 5872 5875 5879 5882 5886 5889 5892 5895 5898 5900 5902 5905 5907 5909
5824 5823 5823 5823 5822 5822 5822 5822 5822 5822 5823 5824 5825 5826 5827 5828 5830 5831 5833 5835 5837 5840 5843 5845 5849 5852 5856 5859 5862 5866 5870 5873 5877 5880 5884 5887 5890 5893 5896 5899 5901 5903 5906
5815 5815 5814 5814 5814 5814 5814 5814 5814 5815 5815 5816 5817 5818 5819 5821 5822 5824 5825 5828 5830 5832 5835 5838 5841 5845 5849 5852 5856 5860 5864 5867 5871 5875 5878 5882 5885 5888 5891 5894 5897 5899 5902
5806 5806 5805 5805 5804 5804 5804 5804 5805 5806 5807 5807 5809 5810 5811 5814 5815 5816 5818 5820 5822 5824 5827 5831 5834 5838 5842 5845 5850 5854 5858 5862 5866 5869 5873 5876 5880 5883 5886 5889 5892 5895 5898
5797 5796 5795 5795 5794 5794 5794 5794 5795 5796 5797 5798 5799 5801 5802 5804 5806 5808 5810 5812 5814 5817 5820 5823 5827 5830 5834 5838 5843 5847 5852 5856 5859 5863 5867 5870 5874 5877 5881 5884 5887 5890 5893
5787 5786 5785 5785 5784 5784 5784 5784 5785 5785 5787 5788 5789 5790 5792 5794 5797 5799 5801 5803 5806 5808 5812 5815 5819 5823 5827 5831 5835 5840 5845 5849 5853 5857 5861 5864 5868 5871 5875 5878 5881 5884 5887
5778 5777 5776 5775 5774 5774 5773 5773 5774 5775 5776 5777 5778 5779 5781 5784 5786 5789 5792 5794 5797 5800 5803 5807 5811 5815 5819 5823 5828 5833 5838 5843 5847 5851 5855 5858 5862 5865 5869 5872 5876 5879 5882
5768 5766 5765 5765 5764 5763 5763 5763 5763 5763 5764 5766 5767 5769 5771 5773 5776 5779 5782 5785 5788 5791 5795 5798 5803 5807 5811 5816 5821 5826 5831 5836 5840 5845 5849 5853 5856 5860 5863 5867 5871 5874 5877
5758 5756 5754 5753 5753 5752 5752 5752 5752 5752 5753 5755 5756 5758 5760 5762 5765 5768 5771 5775 5778 5782 5785 5790 5794 5799 5803 5808 5813 5818 5823 5829 5833 5838 5843 5847 5851 5855 5858 5862 5866 5869 5872
5749 5746 5743 5742 5741 5740 5740 5740 5740 5740 5741 5742 5744 5746 5748 5751 5753 5757 5760 5764 5768 5773 5776 5781 5786 5790 5795 5800 5805 5811 5816 5821 5826 5831 5836 5841 5845 5849 5853 5857 5861 5864 5867
5738 5735 5733 5730 5728 5727 5727 5727 5727 5727 5728 5729 5731 5733 5735 5738 5741 5745 5749 5753 5758 5762 5767 5772 5776 5781 5786 5792 5797 5803 5808 5814 5819 5825 5830 5835 5839 5844 5848 5852 5856 5859 5863
5726 5723 5721 5718 5716 5715 5713 5713 5713 5714 5715 5716 5717 5720 5722 5725 5728 5732 5737 5741 5746 5752 5757 5762 5766 5771 5777 5783 5789 5795 5800 5806 5812 5817 5823 5828 5833 5838 5842 5846 5850 5854 5858
5714 5711 5708 5705 5703 5701 5700 5699 5699 5699 5700 5701 5703 5706 5708 5711 5715 5719 5724 5729 5734 5740 5746 5751 5756 5761 5767 5773 5779 5785 5791 5797 5804 5810 5816 5821 5827 5832 5836 5841 5845 5849 5853
5701 5698 5694 5691 5689 5687 5685 5684 5684 5684 5684 5686 5688 5690 5693 5697 5701 5706 5711 5717 5722 5728 5734 5740 5745 5751 5757 5763 5769 5776 5783 5789 5795 5802 5808 5814 5820 5825 5830 5835 5839 5843 5847
5688 5685 5681 5678 5675 5672 5670 5669 5668 5668 5668 5670 5671 5674 5678 5682 5687 5692 5697 5703 5709 5715 5721 5728 5734 5740 5746 5752 5759 5766 5773 5780 5787 5793 5800 5806 5812 5818 5823 5828 5833 5837 5841
5677 5672 5668 5664 5661 5658 5655 5654 5652 5652 5652 5653 5655 5658 5662 5666 5672 5677 5683 5689 5695 5702 5709 5716 5722 5728 5735 5742 5749 5756 5763 5771 5778 5785 5791 5798 5804 5810 5816 5821 5826 5831 5835
5665 5660 5656 5652 5648 5644 5641 5639 5637 5637 5636 5637 5639 5642 5646 5651 5656 5662 5668 5675 5681 5688 5695 5703 5710 5717 5725 5732 5739 5746 5753 5761 5768 5775 5782 5789 5796 5802 5808 5814 5819 5824 5828
5654 5649 5644 5640 5636 5632 5628 5625 5623 5621 5621 5622 5624 5626 5631 5635 5641 5646 5653 5660 5667 5674 5682 5690 5698 5705 5714 5721 5729 5736 5743 5751 5759 5767 5773 5780 5787 5793 5800 5806 5812 5817 5821
5644 5639 5633 5628 5624 5620 5616 5612 5609 5607 5606 5607 5609 5611 5615 5620 5625 5631 5638 5645 5653 5660 5669 5677 5685 5693 5701 5710 5718 5726 5733 5741 5749 5756 5763 5770 5777 5784 5791 5797 5803 5809 5814
5635 5629 5624 5618 5614 5609 5604 5600 5596 5594 5593 5593 5594 5597 5600 5605 5611 5617 5623 5630 5638 5646 5655 5664 5673 5681 5689 5697 5706 5715 5722 5730 5738 5745 5753 5761 5768 5775 5782 5789 5795 5801 5806
5628 5621 5615 5609 5604 5599 5593 5589 5585 5582 5581 5580 5581 5583 5586 5591 5596 5603 5610 5617 5625 5633 5641 5649 5658 5667 5676 5685 5694 5703 5711 5719 5727 5735 5743 5751 5758 5766 5773 5780 5786 5793 5798
5621 5614 5607 5601 5595 5589 5584 5579 5574 5571 5570 5569 5569 5571 5574 5578 5583 5589 5596 5604 5612 5620 5628 5637 5646 5654 5663 5672 5682 5691 5700 5708 5716 5725 5733 5741 5749 5756 5764 5771 5777 5784 5790